When you browse on this site, cookies collect data to enhance your experience and personalize the content and advertising you see.
Visit our Privacy Policy to learn more. By continuing to use the site, you agree to this use of cookies and data.
  • în România
  • Lista ţărilor
  • Pe 7 zile
  • Temperatura apei
  • Hartă satelitară
  • Meteo pe hartă
  • Widget-uri
  • user-avatar
    Intrare

    Meteo pe oră la Voskresenka

    Astăzi, 25 Martie, Luni

    Timp Temperatura Precipitaţii Vânt Presiune Umiditate
    00:00 -2°C° 0.8 mm 6 m/s 749 mmHg 95%
    01:00 -2°C° 1.3 mm 6 m/s 748 mmHg 96%
    02:00 0°C° 1.3 mm 5 m/s 747 mmHg 97%
    03:00 0°C° 1.3 mm 5 m/s 746 mmHg 98%
    04:00 0°C° 0.1 mm 5 m/s 745 mmHg 96%
    05:00 -1°C° 0.1 mm 5 m/s 744 mmHg 93%
    06:00 -1°C° 0.1 mm 5 m/s 744 mmHg 91%
    07:00 -2°C° 0.1 mm 6 m/s 744 mmHg 92%
    08:00 -2°C° 0.1 mm 6 m/s 744 mmHg 92%
    09:00 -2°C° 0.1 mm 6 m/s 744 mmHg 92%
    10:00 -2°C° 0.3 mm 7 m/s 744 mmHg 91%
    11:00 -2°C° 0.3 mm 8 m/s 745 mmHg 89%
    12:00 -3°C° 0.3 mm 9 m/s 745 mmHg 88%
    13:00 -2°C° 0.2 mm 8 m/s 746 mmHg 87%
    14:00 -2°C° 0.2 mm 8 m/s 747 mmHg 86%
    15:00 -2°C° 0.2 mm 8 m/s 747 mmHg 85%
    16:00 -2°C° 0.1 mm 7 m/s 748 mmHg 86%
    17:00 -2°C° 0.1 mm 6 m/s 749 mmHg 87%
    18:00 -2°C° 0.1 mm 6 m/s 750 mmHg 88%
    19:00 -2°C° 0.1 mm 6 m/s 750 mmHg 87%
    20:00 -2°C° 0.1 mm 6 m/s 751 mmHg 86%
    21:00 -3°C° 0.1 mm 6 m/s 752 mmHg 85%
    22:00 -3°C° 0 mm 6 m/s 752 mmHg 87%
    23:00 -2°C° 0 mm 5 m/s 753 mmHg 88%

    Mâine, 26 Martie, Marţi

    Timp Temperatura Precipitaţii Vânt Presiune Umiditate
    00:00 -4°C° 0 mm 5 m/s 754 mmHg 89%
    01:00 -4°C° 0 mm 5 m/s 754 mmHg 89%
    02:00 -5°C° 0 mm 5 m/s 755 mmHg 89%
    03:00 -4°C° 0 mm 4 m/s 756 mmHg 90%
    04:00 -4°C° 0 mm 4 m/s 756 mmHg 90%
    05:00 -5°C° 0 mm 4 m/s 757 mmHg 91%
    06:00 -5°C° 0 mm 3 m/s 757 mmHg 91%
    07:00 -4°C° 0 mm 3 m/s 758 mmHg 90%
    08:00 -2°C° 0 mm 3 m/s 758 mmHg 89%
    09:00 -2°C° 0 mm 3 m/s 759 mmHg 87%
    10:00 -2°C° 0 mm 4 m/s 759 mmHg 88%
    11:00 -1°C° 0 mm 4 m/s 759 mmHg 88%
    12:00 -1°C° 0 mm 4 m/s 759 mmHg 88%
    13:00 -1°C° 0 mm 4 m/s 759 mmHg 87%
    14:00 -1°C° 0 mm 4 m/s 759 mmHg 86%
    15:00 -1°C° 0 mm 4 m/s 759 mmHg 85%
    16:00 -1°C° 0 mm 4 m/s 758 mmHg 86%
    17:00 -2°C° 0 mm 4 m/s 758 mmHg 87%
    18:00 -2°C° 0 mm 4 m/s 758 mmHg 88%
    19:00 -2°C° 0.2 mm 5 m/s 758 mmHg 86%
    20:00 -2°C° 0.2 mm 6 m/s 757 mmHg 85%
    21:00 -1°C° 0.2 mm 7 m/s 757 mmHg 83%
    22:00 -1°C° 0.5 mm 7 m/s 756 mmHg 84%
    23:00 -1°C° 0.5 mm 7 m/s 756 mmHg 85%

    Poimâine, 27 Martie, Miercuri

    Timp Temperatura Precipitaţii Vânt Presiune Umiditate
    00:00 0°C° 0.5 mm 8 m/s 755 mmHg 86%
    01:00 0°C° 0.7 mm 8 m/s 755 mmHg 85%
    02:00 0°C° 0.7 mm 8 m/s 755 mmHg 84%
    03:00 0°C° 0.7 mm 8 m/s 755 mmHg 83%
    04:00 0°C° 0.7 mm 8 m/s 755 mmHg 84%
    05:00 0°C° 0.7 mm 8 m/s 755 mmHg 85%
    06:00 0°C° 0.7 mm 8 m/s 755 mmHg 86%
    07:00 0°C° 1 mm 7 m/s 755 mmHg 86%
    08:00 -1°C° 1 mm 7 m/s 755 mmHg 87%
    09:00 -1°C° 1 mm 7 m/s 755 mmHg 87%
    10:00 -1°C° 1 mm 7 m/s 755 mmHg 88%
    11:00 -1°C° 1 mm 7 m/s 756 mmHg 90%
    12:00 -1°C° 1 mm 7 m/s 756 mmHg 92%
    13:00 -1°C° 0.6 mm 6 m/s 756 mmHg 94%
    14:00 0°C° 0.6 mm 5 m/s 756 mmHg 96%
    15:00 0°C° 0.6 mm 4 m/s 757 mmHg 98%
    16:00 -1°C° 0.1 mm 4 m/s 757 mmHg 98%
    17:00 0°C° 0.1 mm 3 m/s 757 mmHg 98%
    18:00 +1°C° 0.1 mm 2 m/s 758 mmHg 98%
    19:00 +1°C° 0 mm 2 m/s 758 mmHg 97%
    20:00 +1°C° 0 mm 2 m/s 758 mmHg 97%
    21:00 +1°C° 0 mm 2 m/s 758 mmHg 96%
    22:00 +1°C° 0 mm 1 m/s 758 mmHg 96%
    23:00 +1°C° 0 mm 1 m/s 758 mmHg 95%

    28 Martie, Joi

    Timp Temperatura Precipitaţii Vânt Presiune Umiditate
    00:00 0°C° 0 mm 1 m/s 758 mmHg 95%
    01:00 0°C° 0 mm 1 m/s 758 mmHg 94%
    02:00 -1°C° 0 mm 1 m/s 758 mmHg 94%
    03:00 -1°C° 0 mm 1 m/s 758 mmHg 93%
    04:00 -1°C° 0 mm 1 m/s 758 mmHg 91%
    05:00 -1°C° 0 mm 1 m/s 758 mmHg 90%
    06:00 -2°C° 0 mm 1 m/s 758 mmHg 88%
    07:00 -1°C° 0 mm 1 m/s 758 mmHg 86%
    08:00 -2°C° 0 mm 2 m/s 758 mmHg 84%
    09:00 -1°C° 0 mm 2 m/s 758 mmHg 82%
    10:00 +1°C° 0 mm 2 m/s 758 mmHg 80%
    11:00 +1°C° 0 mm 2 m/s 758 mmHg 78%
    12:00 +2°C° 0 mm 2 m/s 758 mmHg 76%
    13:00 +2°C° 0 mm 2 m/s 758 mmHg 75%
    14:00 +2°C° 0 mm 2 m/s 758 mmHg 74%
    15:00 +1°C° 0 mm 3 m/s 757 mmHg 72%
    16:00 +1°C° 0 mm 3 m/s 758 mmHg 76%
    17:00 0°C° 0 mm 3 m/s 758 mmHg 80%
    18:00 -1°C° 0 mm 3 m/s 758 mmHg 84%
    19:00 -1°C° 0 mm 3 m/s 758 mmHg 86%
    20:00 -1°C° 0 mm 3 m/s 758 mmHg 88%
    21:00 -1°C° 0 mm 3 m/s 758 mmHg 90%
    22:00 -1°C° 0 mm 3 m/s 759 mmHg 91%
    23:00 -1°C° 0 mm 3 m/s 759 mmHg 91%

    29 Martie, Vineri

    Timp Temperatura Precipitaţii Vânt Presiune Umiditate
    00:00 -1°C° 0 mm 3 m/s 759 mmHg 92%
    01:00 -2°C° 0 mm 4 m/s 759 mmHg 91%
    02:00 -3°C° 0 mm 4 m/s 759 mmHg 90%
    03:00 -4°C° 0 mm 5 m/s 759 mmHg 89%
    04:00 -3°C° 0 mm 4 m/s 760 mmHg 88%
    05:00 -4°C° 0 mm 4 m/s 760 mmHg 87%
    06:00 -4°C° 0 mm 4 m/s 760 mmHg 86%
    07:00 -2°C° 0 mm 3 m/s 760 mmHg 81%
    08:00 -2°C° 0 mm 3 m/s 760 mmHg 77%
    09:00 -1°C° 0 mm 3 m/s 761 mmHg 72%
    10:00 0°C° 0 mm 3 m/s 760 mmHg 71%
    11:00 -1°C° 0 mm 4 m/s 760 mmHg 69%
    12:00 0°C° 0 mm 4 m/s 760 mmHg 68%
    13:00 0°C° 0 mm 4 m/s 759 mmHg 67%
    14:00 0°C° 0 mm 5 m/s 759 mmHg 66%
    15:00 0°C° 0 mm 5 m/s 758 mmHg 66%
    16:00 -1°C° 0 mm 5 m/s 758 mmHg 72%
    17:00 -1°C° 0 mm 5 m/s 757 mmHg 78%
    18:00 -2°C° 0 mm 5 m/s 757 mmHg 84%
    19:00 -2°C° 0.1 mm 5 m/s 757 mmHg 86%
    20:00 -2°C° 0.1 mm 5 m/s 757 mmHg 88%
    21:00 -3°C° 0.1 mm 4 m/s 756 mmHg 90%
    22:00 -3°C° 0.1 mm 4 m/s 756 mmHg 91%
    23:00 -2°C° 0.1 mm 3 m/s 756 mmHg 91%

    30 Martie, Sâmbătă

    Timp Temperatura Precipitaţii Vânt Presiune Umiditate
    00:00 -2°C° 0.1 mm 3 m/s 756 mmHg 92%
    01:00 -2°C° 0 mm 3 m/s 757 mmHg 92%
    02:00 -2°C° 0 mm 2 m/s 757 mmHg 93%
    03:00 -2°C° 0 mm 2 m/s 757 mmHg 94%
    04:00 -2°C° 0 mm 2 m/s 758 mmHg 93%
    05:00 -2°C° 0 mm 2 m/s 758 mmHg 93%
    06:00 -2°C° 0 mm 2 m/s 759 mmHg 93%
    07:00 -1°C° 0 mm 2 m/s 759 mmHg 90%
    08:00 -1°C° 0 mm 2 m/s 760 mmHg 88%
    09:00 +1°C° 0 mm 2 m/s 760 mmHg 86%
    10:00 +1°C° 0 mm 2 m/s 760 mmHg 85%
    11:00 +2°C° 0 mm 2 m/s 760 mmHg 83%
    12:00 +2°C° 0 mm 2 m/s 761 mmHg 82%
    13:00 +2°C° 0 mm 2 m/s 761 mmHg 81%
    14:00 +2°C° 0 mm 2 m/s 761 mmHg 81%
    15:00 +3°C° 0 mm 2 m/s 761 mmHg 81%
    16:00 +2°C° 0 mm 2 m/s 761 mmHg 83%
    17:00 +1°C° 0 mm 2 m/s 761 mmHg 86%
    18:00 +1°C° 0 mm 1 m/s 761 mmHg 89%
    19:00 +1°C° 0 mm 1 m/s 762 mmHg 90%
    20:00 -1°C° 0 mm 2 m/s 762 mmHg 92%
    21:00 -2°C° 0 mm 2 m/s 762 mmHg 93%
    22:00 -2°C° 0 mm 2 m/s 762 mmHg 93%
    23:00 -2°C° 0 mm 2 m/s 762 mmHg 93%
    Arată mai mult